Weather History for Millville, NJ

Change the Weather History Date:

Thursday, September 6, 2012

  Actual Average Record
Temperature  
Mean Temperature 72 °F -  
Max Temperature 80 °F 80 °F 96 °F (1983)
Min Temperature 66 °F 61 °F 48 °F (1984)
Cooling Degree Days 8    
Growing Degree Days 22 (Base 50)    
Moisture  
Dew Point 70 °F    
Average Humidity 92    
Maximum Humidity 100    
Minimum Humidity 65    
Precipitation  
Precipitation 0.02 in - - ()
Sea Level Pressure  
Sea Level Pressure 29.88 in    
Wind  
Wind Speed 1 mph (South)    
Max Wind Speed 7 mph    
Max Gust Speed -    
Visibility 6 miles    
Events Fog , Rain , Thunderstorm    
Averages and records for this station are not official NWS values.
T = Trace of Precipitation, MM = Missing Value Source: NWS Daily Summary

Daily Weather History Graph

Daily Weather History Graph

Search for Another Location

Airport:

Trip Planner

Search our weather history database for the weather conditions in past years. The results will help you decide how hot, cold, wet, or windy it might be!

Date:

Astronomy

Sep. 06, 2012 Rise Set
Actual Time 6:33 AM EDT 7:22 PM EDT
Civil Twilight 6:06 AM EDT 7:49 PM EDT
Nautical Twilight 5:34 AM EDT 8:21 PM EDT
Astronomical Twilight 5:00 AM EDT 8:55 PM EDT
Moon 10:33 PM EDT (9/6) 12:28 PM EDT (9/6)
Length of Visible Light 13h 43m
Length of Day
12h 48m
Waning Gibbous, 67% of the Moon is Illuminated
Sep 6
Waning Gibbous
Sep 8
Last Quarter
Sep 15
New
Sep 22
First Quarter
Sep 29
Full

Hourly Weather History & Observations

Time (EDT) Temp. Dew Point Humidity Pressure Visibility Wind Dir Wind Speed Gust Speed Precip Events Conditions
12:17 AM 71.6 °F 71.6 °F 100% 29.85 in 4.0 mi Calm Calm - N/A   Mostly Cloudy
12:26 AM 71.6 °F 71.6 °F 100% 29.85 in 2.5 mi Calm Calm - N/A   Scattered Clouds
12:54 AM 72.0 °F 71.1 °F 97% 29.85 in 3.0 mi Calm Calm - N/A   Scattered Clouds
12:56 AM 71.6 °F 71.6 °F 100% 29.85 in 1.8 mi Calm Calm - N/A   Mostly Cloudy
1:07 AM 71.6 °F 71.6 °F 100% 29.85 in 0.5 mi Calm Calm - N/A Fog Fog
1:21 AM 71.6 °F 71.6 °F 100% 29.85 in 0.5 mi Calm Calm - N/A Fog Fog
1:54 AM 72.0 °F 71.1 °F 97% 29.85 in 0.8 mi Calm Calm - N/A   Mist
2:13 AM 71.6 °F 71.6 °F 100% 29.85 in 1.0 mi Calm Calm - N/A   Mist
2:20 AM 71.6 °F 71.6 °F 100% 29.85 in 0.5 mi Calm Calm - N/A Fog Fog
2:27 AM 71.6 °F 71.6 °F 100% 29.85 in 0.2 mi Calm Calm - N/A Fog Fog
2:36 AM 71.6 °F 71.6 °F 100% 29.85 in 0.2 mi Calm Calm - N/A Fog Fog
2:54 AM 71.6 °F 69.8 °F 94% 29.86 in 0.8 mi Calm Calm - N/A   Overcast
2:57 AM 71.6 °F 69.8 °F 94% 29.86 in 1.5 mi Calm Calm - N/A   Overcast
2:59 AM 71.6 °F 71.6 °F 100% 29.86 in 3.0 mi Calm Calm - N/A   Overcast
3:54 AM 71.1 °F 70.0 °F 96% 29.85 in 2.5 mi Calm Calm - N/A   Clear
4:01 AM 69.8 °F 69.8 °F 100% 29.86 in 1.2 mi Calm Calm - N/A   Clear
4:21 AM 69.8 °F 69.8 °F 100% 29.86 in 4.0 mi Calm Calm - N/A   Clear
4:37 AM 69.8 °F 69.8 °F 100% 29.86 in 2.5 mi Calm Calm - N/A   Clear
4:44 AM 69.8 °F 69.8 °F 100% 29.86 in 5.0 mi Calm Calm - N/A   Clear
4:54 AM 70.0 °F 69.1 °F 97% 29.86 in 6.0 mi Calm Calm - N/A   Scattered Clouds
5:54 AM 71.1 °F 69.1 °F 93% 29.86 in 8.0 mi Calm Calm - N/A   Mostly Cloudy
6:54 AM 72.0 °F 66.9 °F 84% 29.88 in 10.0 mi East 3.5 mph - N/A Thunderstorm Overcast
7:10 AM 71.6 °F 69.8 °F 94% 29.90 in 10.0 mi Calm Calm - N/A   Overcast
7:54 AM 71.1 °F 68.0 °F 90% 29.89 in 10.0 mi Calm Calm - N/A   Scattered Clouds
8:54 AM 72.0 °F 68.0 °F 87% 29.88 in 10.0 mi SE 3.5 mph - N/A   Overcast
9:54 AM 73.9 °F 66.9 °F 79% 29.90 in 10.0 mi Calm Calm - N/A   Mostly Cloudy
10:07 AM 73.4 °F 66.2 °F 78% 29.90 in 10.0 mi ESE 3.5 mph - N/A   Overcast
10:54 AM 77.0 °F 66.9 °F 71% 29.91 in 10.0 mi Calm Calm - N/A   Mostly Cloudy
11:16 AM 78.8 °F 66.2 °F 65% 29.91 in 10.0 mi East 3.5 mph - N/A   Scattered Clouds
11:54 AM 79.0 °F 70.0 °F 74% 29.91 in 10.0 mi Calm Calm - N/A   Clear
12:54 PM 77.0 °F 70.0 °F 79% 29.91 in 10.0 mi Calm Calm - 0.00 in Rain Light Rain
1:43 PM 75.2 °F 71.6 °F 89% 29.91 in 9.0 mi Calm Calm - 0.01 in Rain Light Rain
1:54 PM 75.0 °F 73.0 °F 94% 29.91 in 5.0 mi South 4.6 mph - 0.01 in Rain Light Rain
2:03 PM 75.2 °F 73.4 °F 94% 29.91 in 5.0 mi SW 3.5 mph - 0.00 in Rain Light Rain
2:54 PM 73.0 °F 70.0 °F 90% 29.91 in 9.0 mi Calm Calm - 0.00 in   Clear
3:54 PM 75.0 °F 70.0 °F 84% 29.91 in 9.0 mi Variable 3.5 mph - N/A   Mostly Cloudy
4:06 PM 75.2 °F 69.8 °F 83% 29.91 in 9.0 mi SW 5.8 mph - N/A   Mostly Cloudy
4:24 PM 75.2 °F 69.8 °F 83% 29.90 in 9.0 mi Variable 3.5 mph - N/A   Scattered Clouds
4:54 PM 75.0 °F 69.1 °F 82% 29.89 in 9.0 mi Calm Calm - N/A   Partly Cloudy
5:54 PM 75.0 °F 68.0 °F 79% 29.90 in 10.0 mi WSW 6.9 mph - N/A   Scattered Clouds
6:54 PM 73.0 °F 68.0 °F 84% 29.90 in 10.0 mi Calm Calm - N/A   Clear
7:54 PM 70.0 °F 68.0 °F 93% 29.91 in 10.0 mi Calm Calm - N/A   Clear
8:54 PM 68.0 °F 66.9 °F 96% 29.92 in 6.0 mi Calm Calm - N/A   Clear
9:54 PM 66.9 °F 66.0 °F 97% 29.93 in 4.0 mi Calm Calm - 0.01 in   Clear
10:54 PM 66.9 °F 66.0 °F 97% 29.93 in 6.0 mi Calm Calm - N/A   Clear
11:54 PM 68.0 °F 66.9 °F 96% 29.93 in 8.0 mi SW 4.6 mph - N/A   Clear